sat.trackr.live / text

‹ back to catalog

LEMUR-2-NEUROSPICY

NORAD 63355 · 2025-061E

PAYLOAD ACTIVE UNKNOWN

§ Identity

Operator
Country
US
Launch date
2025-03-26
Launch site
RLLB
Launch vehicle
Mass (kg)
RCS (m²)

Purposes: earth_obs

External: N2YO · Heavens-Above · Gunter

§ Orbital elements

Epoch: 2026-05-25T04:19:43.210272Z

Period
95.11 min
Inclination
97.5611°
Eccentricity
0.0016387
Mean motion
15.13996249 rev/d
Perigee alt
512.7 km
Apogee alt
535.3 km
Semi-major
6,902.2 km
B*
1.9878e-4
RAAN
121.0227°
Arg perigee
345.5285°
Mean anomaly
14.5475°
Rev number
6,413

§ Raw data

LEMUR-2-NEUROSPICY1 63355U 25061E   26145.18036123  .00003552  00000+0  19878-3 0  99982 63355  97.5611 121.0227 0016387 345.5285  14.5475 15.13996249 64134

JSON: /api/v1/satellites/63355 · /tle

For live sub-satellite position, see the globe view (requires WebGL).

§ Visibility from observer

Set your observer location to see the next 7 days of passes ≥ 10°. The values pass through the URL so the page stays shareable.

No JS? Fill the form by hand. The geolocation button needs JavaScript.